Time,TemperatureF,DewpointF,PressureIn,WindDirection,WindDirectionDegrees,WindSpeedMPH,WindSpeedGustMPH,Humidity,HourlyPrecipIn,Conditions,Clouds,dailyrainin,SoftwareType,DateUTC
2013-12-03 00:42:00,34.0,31.0,-100.00,North,0,0.0,-999.0,90,-99.99,,,-99.99,,2013-12-03 05:42:00,
2013-12-03 01:42:00,34.0,31.0,-100.00,North,0,0.0,-999.0,90,-99.99,,,-99.99,,2013-12-03 06:42:00,
2013-12-03 02:22:00,33.0,31.0,-100.00,North,0,0.0,-999.0,90,-99.99,,,-99.99,,2013-12-03 07:22:00,
2013-12-03 02:42:00,33.0,31.0,-100.00,North,0,0.0,-999.0,90,-99.99,,,-99.99,,2013-12-03 07:42:00,
2013-12-03 03:42:00,33.0,31.0,-100.00,North,0,0.0,-999.0,92,-99.99,,,-99.99,,2013-12-03 08:42:00,
2013-12-03 04:22:00,32.0,30.0,-100.00,North,0,0.0,-999.0,92,-99.99,,,-99.99,,2013-12-03 09:22:00,
2013-12-03 04:43:00,32.0,30.0,-100.00,North,0,0.0,-999.0,91,-99.99,,,-99.99,,2013-12-03 09:43:00,
2013-12-03 05:23:00,32.0,30.0,-100.00,North,0,0.0,-999.0,91,-99.99,,,-99.99,,2013-12-03 10:23:00,
2013-12-03 09:52:00,34.0,28.0,-100.00,NE,42,0.0,-999.0,78,-99.99,,,-99.99,,2013-12-03 14:52:00,
2013-12-03 12:22:00,41.0,31.0,-100.00,North,0,0.0,-999.0,69,-99.99,,,-99.99,,2013-12-03 17:22:00,
2013-12-03 12:52:00,39.0,29.0,-100.00,North,0,0.0,-999.0,66,-99.99,,,-99.99,,2013-12-03 17:52:00,
2013-12-03 14:11:00,45.0,33.0,-100.00,North,0,0.0,-999.0,64,-99.99,,,-99.99,,2013-12-03 19:11:00,
2013-12-03 14:22:00,44.0,33.0,-100.00,North,0,0.0,-999.0,64,-99.99,,,-99.99,,2013-12-03 19:22:00,
2013-12-03 14:42:00,40.0,30.0,-100.00,ENE,74,3.0,-999.0,67,-99.99,,,-99.99,,2013-12-03 19:42:00,
2013-12-03 15:22:00,37.0,29.0,-100.00,East,83,8.0,-999.0,72,-99.99,,,-99.99,,2013-12-03 20:22:00,
2013-12-03 16:22:00,38.0,29.0,-100.00,North,0,0.0,-999.0,70,-99.99,,,-99.99,,2013-12-03 21:22:00,
2013-12-03 16:44:00,36.0,28.0,-100.00,North,0,0.0,-999.0,72,-99.99,,,-99.99,,2013-12-03 21:44:00,
2013-12-03 17:13:00,35.0,27.0,-100.00,SE,125,4.0,-999.0,73,-99.99,,,-99.99,,2013-12-03 22:13:00,
2013-12-03 17:23:00,34.0,27.0,-100.00,ESE,112,3.0,-999.0,75,-99.99,,,-99.99,,2013-12-03 22:23:00,
2013-12-03 17:43:00,34.0,27.0,-100.00,ENE,66,1.0,-999.0,75,-99.99,,,-99.99,,2013-12-03 22:43:00,
2013-12-03 17:53:00,34.0,27.0,-100.00,ENE,66,1.0,-999.0,75,-99.99,,,-99.99,,2013-12-03 22:53:00,
2013-12-03 18:22:00,32.0,26.0,-100.00,North,0,0.0,-999.0,78,-99.99,,,-99.99,,2013-12-03 23:22:00,
2013-12-03 19:42:00,32.0,26.0,-100.00,North,0,0.0,-999.0,80,-99.99,,,-99.99,,2013-12-04 00:42:00,
2013-12-03 20:22:00,31.0,26.0,-100.00,North,0,0.0,-999.0,80,-99.99,,,-99.99,,2013-12-04 01:22:00,
2013-12-03 20:42:00,32.0,27.0,-100.00,North,0,0.0,-999.0,80,-99.99,,,-99.99,,2013-12-04 01:42:00,
2013-12-03 21:22:00,32.0,27.0,-100.00,North,0,0.0,-999.0,81,-99.99,,,-99.99,,2013-12-04 02:22:00,
2013-12-03 22:22:00,31.0,26.0,-100.00,North,0,0.0,-999.0,83,-99.99,,,-99.99,,2013-12-04 03:22:00,
2013-12-03 22:43:00,30.0,26.0,-100.00,North,0,0.0,-999.0,83,-99.99,,,-99.99,,2013-12-04 03:43:00,
2013-12-03 22:54:00,30.0,26.0,-100.00,North,0,0.0,-999.0,83,-99.99,,,-99.99,,2013-12-04 03:54:00,
2013-12-03 23:24:00,30.0,27.0,-100.00,North,0,0.0,-999.0,85,-99.99,,,-99.99,,2013-12-04 04:24:00,
2013-12-03 23:52:00,30.0,27.0,-100.00,North,0,0.0,-999.0,87,-99.99,,,-99.99,,2013-12-04 04:52:00,